Location: Brunembert
(50.7122°N, 1.8935°E)
Time: 08:57:45
(UTC+00:00)

Timation 2 Rocket - Pass Details

Date: 22 April 2021
Orbit: 907 x 1074 km, 70.0° (Epoch: 05 May)

Event Time Altitude Azimuth Distance (km) Brightness Sun altitude
Rises 20:18:41 0° 193° (SSW) 3,771 6.8 -11.8°
Reaches altitude 10° 20:21:21 10° 190° (S) 2,800 6.1 -12.1°
Maximum altitude 20:27:42 57° 114° (ESE) 1,159 4.1 -12.9°
Drops below altitude 10° 20:33:50 10° 38° (NE) 2,701 6.4 -13.7°
Sets 20:36:22 0° 34° (NE) 3,628 7.1 -14.0°
